Вернуться в каталог

ATLAS 5 CENTAUR DEB

АктивенHEO
NORAD 44107·DEBRIS·🇺🇸 United States

Запущен Sep 17, 2014 с Cape Canaveral Space Force Station

Loading…

Ближайшие Пролёты (ближайшие 24 часа)

TLE

СвежийSource: Space-Track

Эпоха: Sep 13, 2026, 05:01 UTC

1 44107U 14055CC  26256.20938506 -.00000028  00000-0  00000-0 0  9996
2 44107  19.1095 182.1674 4751046  98.6460 315.8987  1.75839337 48089

Отслеживайте ATLAS 5 CENTAUR DEB в реальном времени с AllMySat

Download on the App Store